Home   Weather   Gautier   Past weeks
Flag for USA

Past Weather in Gautier, Mississippi, USA — Yesterday and Last 2 Weeks

Now
73 °F

Passing clouds.


Feels Like: 73 °F
Forecast: 82 / 64 °F
Wind: No wind

Location: Lott International Airport

Current Time: Oct 19, 2019 at 7:59:58 pm

Latest Report: Oct 19, 2019 at 6:53 pm


Visibility: 10 mi

Pressure: 29.74 "Hg

Humidity: 79%

Dew Point: 66 °F

Location of GautierLocation

Past Weather in Gautier — Graph

°F

Gautier Temperature Yesterday

Maximum temperature yesterday: 65 °F (at 1:53 pm)
Minimum temperature yesterday: 60 °F (at 7:53 am)
Average temperature yesterday: 62 °F

High & Low Weather Summary for the Past Weeks

 TemperatureHumidityPressure
High91 °F (Oct 5, 12:53 pm)93% (Oct 5, 3:53 am)30.08 "Hg (Oct 5, 3:53 am)
Low54 °F (Oct 17, 6:53 am)43% (Oct 17, 12:53 pm)29.68 "Hg (Oct 19, 3:31 am)
Average73 °F77%29.97 "Hg
* Reported Oct 4 5:53 pm — Oct 19 5:53 pm, Gautier. Weather by CustomWeather, © 2019

Note: Actual official high and low records may vary slightly from our data, if they occured in-between our weather recording intervals... More about our weather records

Advertising

Gautier Weather History for the Previous 24 Hours

Scroll right to see more
 ConditionsComfort  
Time TempWeatherWind HumidityBarometerVisibility
5:53 pm
Sat, Oct 19
79 °FPartly sunny.3 mph65%29.72 "Hg10 mi
4:53 pm83 °FSunny.8 mph57%29.70 "Hg10 mi
3:53 pm84 °FSunny.7 mph55%29.69 "Hg10 mi
2:53 pm83 °FSunny.8 mph57%29.68 "Hg10 mi
1:53 pm81 °FPassing clouds.9 mph58%29.69 "Hg10 mi
12:53 pm79 °FPassing clouds.10 mph60%29.71 "Hg10 mi
11:53 am76 °FSunny.7 mph64%29.74 "Hg10 mi
11:29 am73 °FScattered clouds.9 mph69%29.74 "Hg10 mi
10:53 am69 °FOvercast.9 mph76%29.75 "Hg10 mi
10:34 am68 °FMore clouds than sun.5 mph76%29.76 "Hg10 mi
9:53 am65 °FLight rain. Mostly cloudy.6 mph81%29.75 "Hg10 mi
8:53 am63 °FLow clouds.9 mph84%29.74 "Hg10 mi
8:00 am63 °FLow clouds.6 mph84%29.73 "Hg10 mi
6:53 am64 °FLight rain. Overcast.10 mph81%29.71 "Hg8 mi
6:23 am64 °FMostly cloudy.7 mph81%29.70 "Hg10 mi
5:53 am64 °FOvercast.8 mph84%29.69 "Hg10 mi
5:34 am64 °FMostly cloudy.9 mph84%29.68 "Hg10 mi
5:22 am64 °FOvercast.10 mph84%29.68 "Hg10 mi
4:53 am65 °FMostly cloudy.9 mph81%29.68 "Hg10 mi
3:53 am64 °FPassing clouds.8 mph78%29.68 "Hg10 mi
3:31 am64 °FPassing clouds.8 mph75%29.68 "Hg10 mi
2:53 am64 °FMostly cloudy.8 mph73%29.70 "Hg10 mi
1:53 am63 °FClear.7 mph73%29.72 "Hg10 mi
12:53 am63 °FLight rain. Mostly cloudy.10 mph73%29.72 "Hg10 mi
11:53 pm
Fri, Oct 18
63 °FMostly cloudy.8 mph73%29.77 "Hg10 mi
10:53 pm63 °FOvercast.12 mph73%29.78 "Hg10 mi
10:26 pm62 °FPartly cloudy.14 mph75%29.78 "Hg10 mi
10:13 pm62 °FMostly cloudy.10 mph75%29.79 "Hg10 mi
9:13 pm62 °FMostly cloudy.10 mph75%29.79 "Hg10 mi
8:53 pm62 °FOvercast.12 mph75%29.79 "Hg10 mi
8:29 pm62 °FMostly cloudy.10 mph75%29.79 "Hg10 mi
7:53 pm62 °FMostly cloudy.9 mph73%29.79 "Hg10 mi
Weather by CustomWeather, © 2019

See weather overview